Location: Dos Palmas
(32.4468°N, 116.8732°W)
Time: 05:29:58
(UTC+00:00)

IDEFIX/ARIANE 42P - Pass Details

Date: 20 June 2021
Orbit: 784 x 803 km, 98.4° (Epoch: 29 July)

Event Time Altitude Azimuth Distance (km) Brightness Sun altitude
Rises 10:07:21 0° 16° (NNE) 3,302 7.0 -25.1°
Reaches altitude 10° 10:09:43 10° 20° (NNE) 2,366 6.0 -24.8°
Maximum altitude 10:14:54 62° 101° (E) 887 2.8 -24.2°
Enters shadow 10:16:18 45° 158° (SSE) 1,069 3.0 -24.0°
